Regional Weather Roundup
Issued by NWS

Home | Current Version | Previous Version | Text Only | Print | Product List | Glossary Off
Versions: 1 2 3 4 5 6 7 8 9 10 11 12 13 14 15 16 17 18 19 20 21 22 23 24 25 26 27 28 29 30 31 32 33 34 35 36 37 38 39 40 41 42 43 44 45 46 47 48 49 50

000
ASUS43 KDMX 271206
RWRIA

WEATHER ROUNDUP FOR IOWA
NATIONAL WEATHER SERVICE DES MOINES IA
600 AM CST MON FEB 27 2017

NOTE: "FAIR" INDICATES FEW OR NO CLOUDS BELOW 12,000 FEET WITH NO
SIGNIFICANT WEATHER AND/OR OBSTRUCTIONS TO VISIBILITY.

* - THESE STATIONS ARE NOT NWS STATIONS...THUS NOT UNDER NWS
QUALITY CONTROL.  THEY ALSO DO NOT REPORT WEATHER SUCH
AS PRECIPITATION OR FOG.

IAZ001>003-012>014-020>022-031>034-043>046-271300-
   NORTHWEST IOWA

CITY           SKY/WX    TMP DP  RH WIND       PRES   REMARKS
CARROLL *      CLOUDY    18  18 100 SE5       29.99S WCI  11
CHEROKEE *     CLEAR     10   9  95 CALM      29.96S
DENISON *      CLEAR     16  16 100 CALM      29.96S
LE MARS *      CLEAR     21  18  86 S7        29.95S WCI  13
SHELDON *      CLEAR     21  21 100 SE6       29.91S WCI  14
SIOUX CITY     CLEAR     17  14  88 E9        29.96S WCI   6
6HR MIN TEMP:  16; 6HR MAX TEMP:  22;

SPENCER        CLEAR     16  13  88 SE3       29.95S
6HR MIN TEMP:  15; 6HR MAX TEMP:  21;

STORM LAKE *   CLEAR     19  16  86 S13       29.95S WCI   7
$$

IAZ055>058-069>071-079>083-090>094-271300-
   SOUTHWEST IOWA

CITY           SKY/WX    TMP DP  RH WIND       PRES   REMARKS
ATLANTIC *     CLEAR     21  21 100 CALM      29.99S
AUDUBON *      CLEAR     18  16  93 CALM      29.98S
CLARINDA *     MOCLDY    19  19 100 CALM      30.02F
COUNCIL BLFS * CLEAR     25  21  86 SE7       29.97S WCI  17
CRESTON *      CLEAR     27  25  93 S5        30.01S WCI  21
HARLAN  *      CLEAR     18  18 100 CALM      30.01S
LAMONI         FOG       29  28  96 S8        30.01S VSB 1/4 WCI  21
6HR MIN TEMP:  29; 6HR MAX TEMP:  37;

RED OAK *      CLEAR     21  19  93 CALM      29.99F
SHENANDOAH *   CLEAR     23  23 100 CALM      30.00F
$$

IAZ047>049-059>061-072>074-084-271300-
   CENTRAL IOWA

CITY           SKY/WX    TMP DP  RH WIND       PRES   REMARKS
AMES           CLEAR     23  22  96 CALM      30.01S FOG
6HR MIN TEMP:  20; 6HR MAX TEMP:  26;

ANKENY *       CLEAR     21  19  93 CALM      30.03S
BOONE *        CLEAR     25  23  93 SE6       29.99S WCI  18
CHARITON *     CLEAR     28  27  93 S8        30.02S WCI  20
DES MOINES     CLEAR     29  21  72 SE5       30.01S WCI  24
6HR MIN TEMP:  26; 6HR MAX TEMP:  34;

GRINNELL*      CLEAR     26  22  86 E6        30.04S WCI  19
KNOXVILLE *    CLEAR     28  27  93 S7        30.02R WCI  21
MARSHALLTOWN   CLEAR     20  19  96 E7        30.03R WCI  11
6HR MIN TEMP:  19; 6HR MAX TEMP:  26;

NEWTON *       CLEAR     25  21  86 SE6       30.02S WCI  18
PELLA *        CLEAR     30  27  89 S3        30.05R
PERRY *          N/A     23  22  96 CALM      30.00F
$$

IAZ004>006-015-016-023>025-035-036-271300-
   NORTH CENTRAL IOWA

CITY           SKY/WX    TMP DP  RH WIND       PRES   REMARKS
ALGONA *       CLOUDY    18  18 100 S13       29.97R WCI   4
CLARION *      CLOUDY    19  18  93 S9        30.00S WCI   9
ESTHERVILLE    CLEAR     13  12  96 S10       29.95R WCI   0
6HR MIN TEMP:  13; 6HR MAX TEMP:  24;

FORT DODGE *   CLEAR     12   9  85 S3        30.00S
MASON CITY     CLOUDY    14  12  92 S7        30.00F FOG     WCI   4
6HR MIN TEMP:   9; 6HR MAX TEMP:  18;

FOREST CITY *  FOG        5   1  85 CALM      29.98S VSB 1/4
WEBSTER CITY * CLEAR     18  16  93 S5        29.99R FOG     WCI  11
IOWA FALLS *     N/A     23  21  93 SE5       30.02F WCI  17
$$

IAZ007>011-017>019-026>030-037>042-050>054-066-271300-
   NORTHEAST IOWA

CITY           SKY/WX    TMP DP  RH WIND       PRES   REMARKS
CEDAR RAPIDS   MOCLDY    27  25  92 E5        30.04R WCI  22
6HR MIN TEMP:  21; 6HR MAX TEMP:  29;

CHARLES CITY * CLEAR     21  21 100 SE7       30.03R WCI  13
CLINTON *      CLEAR     27  26  96 SE8       30.09R WCI  19
DECORAH *      CLEAR     23  21  93 S5        30.03R WCI  17
DUBUQUE        CLEAR     25  21  85 CALM      30.06R
6HR MIN TEMP:  22; 6HR MAX TEMP:  26;

MONTICELLO *   PTCLDY    21  21 100 CALM      30.07R
OELWEIN *      CLEAR     23  23 100 SE7       30.05R WCI  15
WATERLOO       CLEAR     21  19  92 SE5       30.04S FOG     WCI  15
6HR MIN TEMP:  20; 6HR MAX TEMP:  25;

$$

IAZ064-065-067-068-078-271300-
   EAST CENTRAL IOWA

CITY           SKY/WX    TMP DP  RH WIND       PRES   REMARKS
DAVENPORT      PTCLDY    26  23  88 SE7       30.08S WCI  18
6HR MIN TEMP:  25; 6HR MAX TEMP:  33;

IOWA CITY      CLOUDY    30  25  81 CALM      30.08R
6HR MIN TEMP:  26; 6HR MAX TEMP:  31;

MUSCATINE *    PTCLDY    25  23  93 N3        30.09R
QUAD CITIES    CLEAR     30  26  85 CALM      30.09R
6HR MIN TEMP:  25; 6HR MAX TEMP:  34;

$$

IAZ062-063-075>077-085>089-095>099-271300-
   SOUTHEAST IOWA

CITY           SKY/WX    TMP DP  RH WIND       PRES   REMARKS
BURLINGTON     CLEAR     29  28  96 S3        30.08S FOG
6HR MIN TEMP:  28; 6HR MAX TEMP:  35;

FAIRFIELD *    CLOUDY    30  28  93 S6        30.06R FOG     WCI  24
KEOKUK *       FOG       30  30 100 SE5       30.07S VSB 1/4 WCI  25
CENTERVILLE *  FOG       30  30 100 CALM      30.05S VSB 1/2
OTTUMWA        PTCLDY    30  29  96 S10       30.04R WCI  21
6HR MIN TEMP:  28; 6HR MAX TEMP:  34;

WASHINGTON *   PTCLDY    28  28 100 S7        30.07S WCI  21
$$

ABBREVIATIONS USED IN REMARKS
   TC - TEMPERATURES IN CELSIUS
  WCI - WIND CHILL INDEX
   HX - HEAT INDEX
  VSB - VISIBILITY
$$




USA.gov is the U.S. government's official web portal to all federal, state and local government web resources and services.